^^
Your Local Weather - Clay, NY Station Historical Data
Daily Summary for January 23, 2017 Units:  English    Metric   Both
« Previous Day
Next Day »
Daily Weekly Monthly Yearly Custom
  High: Low: Average:
Temperature: 40.7 °F 31.9 °F 36.7 °F
Dew Point: 36.8 °F 25.5 °F 30.3 °F
Humidity: 89% 68% 78%
Wind Speed: 9.0mph 1.0mph 4.9mph
Wind Gust: 19.0mph - -
Wind- - East
Pressure: 29.83 in 29.70 in -
Precipitation: 0.05 in    
Historical Graphs
 
 
Tabular Data for January 23, 2017
Time Temperature Dew Point Pressure Wind Wind Speed Wind Gust Humidity Rainfall Rate (Hourly) solar
01:52 40.7 °F 36.8 °F 29.78 in ENE 5.0 mph 5.0 mph 86% 0.00 in 0 W/m2
01:58 40.6 °F 36.7 °F 29.78 in NNE 5.0 mph 6.0 mph 86% 0.00 in 0 W/m2
02:04 40.4 °F 36.5 °F 29.78 in ESE 4.0 mph 5.0 mph 86% 0.00 in 0 W/m2
02:10 40.3 °F 36.7 °F 29.78 in ENE 5.0 mph 8.0 mph 87% 0.00 in 0 W/m2
02:16 40.0 °F 36.4 °F 29.78 in ENE 5.0 mph 8.0 mph 87% 0.00 in 0 W/m2
02:22 39.9 °F 36.3 °F 29.78 in East 5.0 mph 7.0 mph 87% 0.00 in 0 W/m2
02:28 39.7 °F 36.4 °F 29.78 in ENE 4.0 mph 7.0 mph 88% 0.00 in 0 W/m2
02:34 39.5 °F 36.2 °F 29.78 in SE 3.0 mph 6.0 mph 88% 0.00 in 0 W/m2
02:40 39.3 °F 36.0 °F 29.78 in NNE 4.0 mph 4.0 mph 88% 0.00 in 0 W/m2
02:46 39.2 °F 35.9 °F 29.78 in East 3.0 mph 8.0 mph 88% 0.00 in 0 W/m2
02:52 39.0 °F 35.7 °F 29.78 in East 4.0 mph 4.0 mph 88% 0.00 in 0 W/m2
02:58 38.9 °F 35.6 °F 29.78 in ENE 4.0 mph 5.0 mph 88% 0.00 in 0 W/m2
03:04 38.8 °F 35.6 °F 29.78 in East 4.0 mph 4.0 mph 88% 0.00 in 0 W/m2
03:10 38.7 °F 35.5 °F 29.78 in ESE 5.0 mph 5.0 mph 88% 0.00 in 0 W/m2
03:16 38.6 °F 35.4 °F 29.78 in East 6.0 mph 9.0 mph 88% 0.00 in 0 W/m2
03:22 38.5 °F 35.0 °F 29.78 in NNE 6.0 mph 8.0 mph 87% 0.00 in 0 W/m2
03:28 38.5 °F 35.0 °F 29.78 in East 5.0 mph 8.0 mph 87% 0.00 in 0 W/m2
03:34 38.5 °F 35.0 °F 29.78 in ENE 5.0 mph 7.0 mph 87% 0.00 in 0 W/m2
03:40 38.4 °F 34.9 °F 29.78 in ENE 5.0 mph 7.0 mph 87% 0.00 in 0 W/m2
03:46 38.3 °F 34.8 °F 29.78 in East 6.0 mph 9.0 mph 87% 0.00 in 0 W/m2
03:52 38.3 °F 34.8 °F 29.78 in ESE 6.0 mph 8.0 mph 87% 0.00 in 0 W/m2
03:58 38.2 °F 34.7 °F 29.78 in East 6.0 mph 8.0 mph 87% 0.00 in 0 W/m2
04:04 38.2 °F 34.4 °F 29.78 in East 5.0 mph 7.0 mph 86% 0.00 in 0 W/m2
04:10 38.4 °F 34.6 °F 29.78 in East 6.0 mph 6.0 mph 86% 0.00 in 0 W/m2
04:16 38.4 °F 34.6 °F 29.78 in NE 6.0 mph 7.0 mph 86% 0.00 in 0 W/m2
04:22 38.4 °F 34.6 °F 29.78 in East 5.0 mph 8.0 mph 86% 0.00 in 0 W/m2
04:28 38.5 °F 34.4 °F 29.78 in ESE 5.0 mph 8.0 mph 85% 0.00 in 0 W/m2
04:34 38.5 °F 34.4 °F 29.78 in NE 4.0 mph 7.0 mph 85% 0.00 in 0 W/m2
04:40 38.6 °F 34.5 °F 29.78 in SE 6.0 mph 8.0 mph 85% 0.00 in 0 W/m2
04:46 38.6 °F 34.2 °F 29.78 in SSE 6.0 mph 8.0 mph 84% 0.00 in 0 W/m2
04:52 38.6 °F 34.5 °F 29.78 in East 4.0 mph 7.0 mph 85% 0.00 in 0 W/m2
04:58 38.6 °F 34.2 °F 29.78 in East 4.0 mph 7.0 mph 84% 0.00 in 0 W/m2
05:04 38.7 °F 34.3 °F 29.78 in ESE 6.0 mph 14.0 mph 84% 0.00 in 0 W/m2
05:10 38.7 °F 34.3 °F 29.78 in East 5.0 mph 11.0 mph 84% 0.00 in 0 W/m2
05:16 38.7 °F 34.3 °F 29.78 in ENE 4.0 mph 11.0 mph 84% 0.00 in 0 W/m2
05:22 38.7 °F 34.0 °F 29.79 in East 5.0 mph 5.0 mph 83% 0.00 in 0 W/m2
05:28 38.7 °F 34.3 °F 29.79 in ENE 5.0 mph 5.0 mph 84% 0.00 in 0 W/m2
05:34 38.7 °F 34.0 °F 29.79 in NE 5.0 mph 7.0 mph 83% 0.00 in 0 W/m2
05:40 38.7 °F 34.3 °F 29.79 in East 5.0 mph 5.0 mph 84% 0.00 in 0 W/m2
05:46 38.7 °F 34.0 °F 29.79 in ENE 5.0 mph 9.0 mph 83% 0.00 in 0 W/m2
05:52 38.7 °F 34.0 °F 29.79 in East 5.0 mph 5.0 mph 83% 0.00 in 0 W/m2
05:58 38.6 °F 33.9 °F 29.79 in ENE 5.0 mph 7.0 mph 83% 0.00 in 0 W/m2
06:04 38.6 °F 33.9 °F 29.80 in ENE 5.0 mph 6.0 mph 83% 0.00 in 0 W/m2
06:10 38.6 °F 33.9 °F 29.80 in ESE 5.0 mph 7.0 mph 83% 0.00 in 0 W/m2
06:16 38.7 °F 34.0 °F 29.80 in NE 5.0 mph 7.0 mph 83% 0.00 in 0 W/m2
06:22 38.7 °F 34.0 °F 29.80 in East 6.0 mph 6.0 mph 83% 0.00 in 0 W/m2
06:28 38.8 °F 33.8 °F 29.80 in ENE 5.0 mph 9.0 mph 82% 0.00 in 0 W/m2
06:34 38.8 °F 33.8 °F 29.81 in SE 4.0 mph 7.0 mph 82% 0.00 in 0 W/m2
06:40 39.0 °F 34.0 °F 29.81 in East 5.0 mph 8.0 mph 82% 0.00 in 0 W/m2
06:46 39.1 °F 33.8 °F 29.81 in ENE 6.0 mph 8.0 mph 81% 0.00 in 0 W/m2
06:52 39.1 °F 33.5 °F 29.81 in ENE 5.0 mph 5.0 mph 80% 0.00 in 0 W/m2
06:58 39.2 °F 33.5 °F 29.81 in East 4.0 mph 11.0 mph 80% 0.00 in 0 W/m2
07:04 39.3 °F 33.6 °F 29.81 in ENE 5.0 mph 8.0 mph 80% 0.00 in 0 W/m2
07:10 39.3 °F 33.6 °F 29.80 in East 5.0 mph 5.0 mph 80% 0.00 in 0 W/m2
07:16 39.2 °F 33.2 °F 29.80 in NE 4.0 mph 6.0 mph 79% 0.00 in 0 W/m2
07:22 39.1 °F 33.5 °F 29.80 in NE 3.0 mph 4.0 mph 80% 0.00 in 0 W/m2
07:28 38.7 °F 33.1 °F 29.81 in East 3.0 mph 7.0 mph 80% 0.00 in 0 W/m2
07:34 38.5 °F 32.6 °F 29.81 in ENE 4.0 mph 5.0 mph 79% 0.00 in 0 W/m2
07:40 38.3 °F 32.7 °F 29.81 in ENE 4.0 mph 8.0 mph 80% 0.00 in 0 W/m2
07:46 38.1 °F 32.5 °F 29.81 in ESE 4.0 mph 8.0 mph 80% 0.00 in 0 W/m2
07:52 38.0 °F 32.4 °F 29.81 in East 3.0 mph 7.0 mph 80% 0.00 in 5 W/m2
07:58 37.9 °F 32.3 °F 29.81 in East 4.0 mph 7.0 mph 80% 0.00 in 9 W/m2
08:04 37.9 °F 32.3 °F 29.81 in East 3.0 mph 5.0 mph 80% 0.00 in 12 W/m2
08:10 37.8 °F 32.5 °F 29.81 in ENE 3.0 mph 3.0 mph 81% 0.00 in 16 W/m2
08:16 37.7 °F 32.4 °F 29.81 in East 4.0 mph 5.0 mph 81% 0.00 in 18 W/m2
08:22 37.6 °F 32.3 °F 29.81 in East 4.0 mph 4.0 mph 81% 0.00 in 19 W/m2
08:28 37.6 °F 32.3 °F 29.81 in ENE 3.0 mph 5.0 mph 81% 0.00 in 19 W/m2
08:34 37.6 °F 32.3 °F 29.81 in ENE 4.0 mph 5.0 mph 81% 0.00 in 25 W/m2
08:40 37.7 °F 32.1 °F 29.81 in East 4.0 mph 4.0 mph 80% 0.00 in 28 W/m2
08:46 37.8 °F 32.2 °F 29.81 in ESE 6.0 mph 7.0 mph 80% 0.00 in 32 W/m2
08:52 37.9 °F 32.0 °F 29.81 in ESE 5.0 mph 6.0 mph 79% 0.00 in 33 W/m2
08:58 37.9 °F 32.0 °F 29.81 in ENE 4.0 mph 6.0 mph 79% 0.00 in 33 W/m2
09:04 37.8 °F 31.9 °F 29.81 in ENE 5.0 mph 6.0 mph 79% 0.00 in 39 W/m2
09:10 37.8 °F 31.9 °F 29.81 in NE 4.0 mph 4.0 mph 79% 0.00 in 40 W/m2
09:16 37.9 °F 31.7 °F 29.81 in NE 5.0 mph 5.0 mph 78% 0.00 in 46 W/m2
09:22 37.9 °F 32.0 °F 29.81 in East 6.0 mph 9.0 mph 79% 0.00 in 54 W/m2
09:28 37.8 °F 31.9 °F 29.81 in ENE 5.0 mph 9.0 mph 79% 0.00 in 60 W/m2
09:34 37.7 °F 31.5 °F 29.81 in NNE 6.0 mph 7.0 mph 78% 0.00 in 53 W/m2
09:40 37.7 °F 31.5 °F 29.81 in ENE 6.0 mph 10.0 mph 78% 0.00 in 60 W/m2
09:46 37.7 °F 31.5 °F 29.82 in East 7.0 mph 10.0 mph 78% 0.00 in 62 W/m2
09:52 37.8 °F 31.6 °F 29.82 in ENE 4.0 mph 7.0 mph 78% 0.00 in 54 W/m2
09:58 37.9 °F 32.0 °F 29.82 in ENE 5.0 mph 7.0 mph 79% 0.00 in 56 W/m2
10:06 38.0 °F 31.7 °F 29.83 in ENE 4.0 mph 7.0 mph 78% 0.00 in 58 W/m2
10:12 38.0 °F 31.7 °F 29.83 in SE 4.0 mph 5.0 mph 78% 0.00 in 49 W/m2
10:18 38.1 °F 31.5 °F 29.83 in ENE 5.0 mph 8.0 mph 77% 0.00 in 44 W/m2
10:26 38.1 °F 31.5 °F 29.83 in NE 5.0 mph 7.0 mph 77% 0.00 in 53 W/m2
10:32 38.1 °F 31.5 °F 29.83 in East 5.0 mph 5.0 mph 77% 0.00 in 58 W/m2
10:40 38.3 °F 31.7 °F 29.83 in ENE 5.0 mph 7.0 mph 77% 0.00 in 54 W/m2
10:46 38.3 °F 31.7 °F 29.83 in ENE 5.0 mph 8.0 mph 77% 0.00 in 51 W/m2
10:52 38.3 °F 31.7 °F 29.83 in ENE 5.0 mph 6.0 mph 77% 0.00 in 51 W/m2
10:58 38.3 °F 31.7 °F 29.83 in NE 5.0 mph 8.0 mph 77% 0.00 in 51 W/m2
11:04 38.2 °F 31.3 °F 29.83 in East 6.0 mph 9.0 mph 76% 0.00 in 58 W/m2
11:10 38.0 °F 31.4 °F 29.83 in East 6.0 mph 6.0 mph 77% 0.00 in 60 W/m2
11:16 37.8 °F 31.2 °F 29.83 in NE 6.0 mph 8.0 mph 77% 0.00 in 58 W/m2
11:22 37.6 °F 31.4 °F 29.83 in ENE 5.0 mph 5.0 mph 78% 0.00 in 56 W/m2
11:28 37.6 °F 31.4 °F 29.82 in ENE 5.0 mph 7.0 mph 78% 0.00 in 63 W/m2
11:34 37.6 °F 31.4 °F 29.82 in ENE 4.0 mph 6.0 mph 78% 0.00 in 72 W/m2
11:40 37.6 °F 31.4 °F 29.81 in East 4.0 mph 6.0 mph 78% 0.00 in 77 W/m2
11:46 37.7 °F 31.1 °F 29.81 in NE 5.0 mph 6.0 mph 77% 0.00 in 88 W/m2
11:52 37.7 °F 31.5 °F 29.80 in NNE 6.0 mph 11.0 mph 78% 0.00 in 111 W/m2
11:58 37.9 °F 31.3 °F 29.80 in SE 5.0 mph 11.0 mph 77% 0.00 in 121 W/m2
12:04 37.9 °F 31.3 °F 29.80 in SE 6.0 mph 8.0 mph 77% 0.00 in 114 W/m2
12:10 37.9 °F 31.3 °F 29.80 in ESE 6.0 mph 6.0 mph 77% 0.00 in 114 W/m2
12:16 37.9 °F 31.0 °F 29.80 in East 6.0 mph 9.0 mph 76% 0.00 in 132 W/m2
12:22 38.4 °F 31.5 °F 29.80 in ESE 6.0 mph 6.0 mph 76% 0.00 in 153 W/m2
12:28 38.6 °F 31.4 °F 29.80 in ENE 6.0 mph 9.0 mph 75% 0.00 in 139 W/m2
12:34 38.6 °F 31.0 °F 29.80 in ENE 7.0 mph 7.0 mph 74% 0.00 in 109 W/m2
12:40 38.4 °F 30.8 °F 29.80 in ESE 7.0 mph 8.0 mph 74% 0.00 in 102 W/m2
12:46 38.2 °F 30.6 °F 29.80 in ENE 7.0 mph 9.0 mph 74% 0.00 in 121 W/m2
12:52 38.1 °F 30.9 °F 29.79 in East 6.0 mph 7.0 mph 75% 0.00 in 97 W/m2
12:58 38.0 °F 30.4 °F 29.79 in ENE 6.0 mph 11.0 mph 74% 0.00 in 109 W/m2
13:06 37.9 °F 30.4 °F 29.78 in ENE 6.0 mph 6.0 mph 74% 0.00 in 113 W/m2
13:12 38.0 °F 30.1 °F 29.77 in East 5.0 mph 7.0 mph 73% 0.00 in 113 W/m2
13:18 37.8 °F 29.6 °F 29.76 in East 6.0 mph 8.0 mph 72% 0.00 in 113 W/m2
13:26 37.7 °F 29.5 °F 29.77 in ENE 7.0 mph 16.0 mph 72% 0.00 in 102 W/m2
13:32 37.5 °F 29.3 °F 29.76 in SE 7.0 mph 8.0 mph 72% 0.00 in 111 W/m2
13:38 37.4 °F 28.5 °F 29.76 in ENE 6.0 mph 9.0 mph 70% 0.00 in 97 W/m2
13:46 37.3 °F 28.8 °F 29.76 in NE 8.0 mph 11.0 mph 71% 0.00 in 100 W/m2
13:52 37.3 °F 28.8 °F 29.76 in NE 7.0 mph 14.0 mph 71% 0.00 in 116 W/m2
13:58 37.4 °F 28.9 °F 29.75 in East 7.0 mph 14.0 mph 71% 0.00 in 134 W/m2
14:04 37.4 °F 28.5 °F 29.75 in ENE 7.0 mph 12.0 mph 70% 0.00 in 148 W/m2
14:10 37.5 °F 28.9 °F 29.75 in ENE 6.0 mph 11.0 mph 71% 0.00 in 141 W/m2
14:16 37.5 °F 28.9 °F 29.74 in NE 6.0 mph 11.0 mph 71% 0.00 in 137 W/m2
14:22 37.3 °F 29.1 °F 29.75 in NE 5.0 mph 7.0 mph 72% 0.00 in 125 W/m2
14:28 37.0 °F 29.1 °F 29.74 in ENE 6.0 mph 10.0 mph 73% 0.00 in 137 W/m2
14:36 36.9 °F 29.4 °F 29.75 in ESE 7.0 mph 7.0 mph 74% 0.00 in 125 W/m2
14:42 36.9 °F 29.1 °F 29.75 in NE 6.0 mph 9.0 mph 73% 0.00 in 107 W/m2
14:48 36.9 °F 28.7 °F 29.75 in NE 7.0 mph 9.0 mph 72% 0.00 in 97 W/m2
14:54 36.9 °F 28.4 °F 29.75 in SE 8.0 mph 11.0 mph 71% 0.00 in 90 W/m2
15:00 36.8 °F 28.3 °F 29.75 in ENE 9.0 mph 9.0 mph 71% 0.00 in 84 W/m2
15:06 36.9 °F 28.0 °F 29.76 in East 7.0 mph 9.0 mph 70% 0.00 in 76 W/m2
15:12 36.8 °F 27.9 °F 29.77 in ESE 7.0 mph 10.0 mph 70% 0.00 in 65 W/m2
15:18 36.8 °F 27.9 °F 29.76 in ESE 7.0 mph 10.0 mph 70% 0.00 in 72 W/m2
15:24 36.8 °F 27.9 °F 29.76 in NE 6.0 mph 12.0 mph 70% 0.00 in 70 W/m2
15:30 36.8 °F 27.6 °F 29.76 in ENE 6.0 mph 8.0 mph 69% 0.00 in 63 W/m2
15:36 36.8 °F 27.6 °F 29.76 in ESE 7.0 mph 8.0 mph 69% 0.00 in 58 W/m2
15:42 36.8 °F 27.6 °F 29.76 in ENE 6.0 mph 11.0 mph 69% 0.00 in 58 W/m2
15:48 36.7 °F 27.5 °F 29.75 in East 6.0 mph 11.0 mph 69% 0.00 in 51 W/m2
15:54 36.6 °F 27.0 °F 29.75 in ESE 6.0 mph 13.0 mph 68% 0.00 in 47 W/m2
16:00 36.5 °F 27.3 °F 29.75 in East 6.0 mph 6.0 mph 69% 0.00 in 42 W/m2
16:06 36.4 °F 26.8 °F 29.75 in SE 6.0 mph 11.0 mph 68% 0.00 in 35 W/m2
16:12 36.3 °F 26.7 °F 29.75 in East 6.0 mph 7.0 mph 68% 0.00 in 30 W/m2
16:18 36.3 °F 27.1 °F 29.76 in NE 6.0 mph 10.0 mph 69% 0.00 in 26 W/m2
16:24 36.2 °F 27.0 °F 29.76 in ENE 6.0 mph 9.0 mph 69% 0.00 in 21 W/m2
16:30 36.1 °F 26.9 °F 29.76 in ENE 6.0 mph 6.0 mph 69% 0.00 in 16 W/m2
16:36 36.0 °F 26.8 °F 29.77 in SE 5.0 mph 9.0 mph 69% 0.00 in 12 W/m2
16:42 35.9 °F 26.7 °F 29.77 in ESE 5.0 mph 6.0 mph 69% 0.00 in 9 W/m2
16:48 35.8 °F 26.6 °F 29.77 in ESE 5.0 mph 8.0 mph 69% 0.00 in 7 W/m2
16:54 35.9 °F 26.4 °F 29.77 in ESE 7.0 mph 9.0 mph 68% 0.00 in 0 W/m2
17:00 35.8 °F 26.6 °F 29.77 in ESE 6.0 mph 6.0 mph 69% 0.00 in 0 W/m2
17:06 35.7 °F 26.5 °F 29.76 in East 6.0 mph 6.0 mph 69% 0.00 in 0 W/m2
17:12 35.7 °F 26.2 °F 29.76 in ESE 6.0 mph 7.0 mph 68% 0.00 in 0 W/m2
17:18 35.7 °F 26.5 °F 29.75 in East 5.0 mph 7.0 mph 69% 0.00 in 0 W/m2
17:24 35.5 °F 26.3 °F 29.75 in ENE 4.0 mph 7.0 mph 69% 0.00 in 0 W/m2
17:30 35.4 °F 26.2 °F 29.75 in ENE 5.0 mph 5.0 mph 69% 0.00 in 0 W/m2
17:36 35.4 °F 26.2 °F 29.75 in ENE 4.0 mph 8.0 mph 69% 0.00 in 0 W/m2
17:42 35.4 °F 26.2 °F 29.76 in East 6.0 mph 12.0 mph 69% 0.00 in 0 W/m2
17:48 35.3 °F 26.5 °F 29.76 in ENE 6.0 mph 12.0 mph 70% 0.00 in 0 W/m2
17:54 35.3 °F 26.5 °F 29.77 in ENE 4.0 mph 10.0 mph 70% 0.00 in 0 W/m2
18:00 35.4 °F 26.6 °F 29.77 in SE 5.0 mph 9.0 mph 70% 0.00 in 0 W/m2
18:06 35.3 °F 26.5 °F 29.77 in NNE 5.0 mph 9.0 mph 70% 0.00 in 0 W/m2
18:12 35.3 °F 26.5 °F 29.77 in East 5.0 mph 5.0 mph 70% 0.00 in 0 W/m2
18:18 35.3 °F 26.1 °F 29.77 in East 5.0 mph 8.0 mph 69% 0.00 in 0 W/m2
18:24 35.3 °F 26.1 °F 29.77 in East 5.0 mph 7.0 mph 69% 0.00 in 0 W/m2
18:30 35.3 °F 26.1 °F 29.78 in ENE 4.0 mph 4.0 mph 69% 0.00 in 0 W/m2
18:36 35.2 °F 26.4 °F 29.78 in ENE 4.0 mph 4.0 mph 70% 0.00 in 0 W/m2
18:44 35.3 °F 26.1 °F 29.78 in SE 4.0 mph 5.0 mph 69% 0.00 in 0 W/m2
18:50 35.2 °F 26.0 °F 29.77 in SE 5.0 mph 5.0 mph 69% 0.00 in 0 W/m2
18:56 35.2 °F 26.4 °F 29.78 in NE 4.0 mph 5.0 mph 70% 0.00 in 0 W/m2
19:02 35.1 °F 26.3 °F 29.77 in ESE 4.0 mph 5.0 mph 70% 0.00 in 0 W/m2
19:08 35.1 °F 25.9 °F 29.78 in SE 5.0 mph 10.0 mph 69% 0.00 in 0 W/m2
19:14 35.1 °F 25.9 °F 29.78 in ENE 4.0 mph 10.0 mph 69% 0.00 in 0 W/m2
19:20 35.1 °F 25.9 °F 29.78 in East 5.0 mph 9.0 mph 69% 0.00 in 0 W/m2
19:26 35.1 °F 26.3 °F 29.78 in ESE 6.0 mph 9.0 mph 70% 0.00 in 0 W/m2
19:32 35.1 °F 25.9 °F 29.77 in SE 6.0 mph 11.0 mph 69% 0.00 in 0 W/m2
19:38 35.0 °F 25.5 °F 29.77 in SE 7.0 mph 11.0 mph 68% 0.00 in 0 W/m2
19:44 35.0 °F 25.9 °F 29.77 in SE 5.0 mph 8.0 mph 69% 0.00 in 0 W/m2
19:50 34.9 °F 25.8 °F 29.77 in ESE 3.0 mph 4.0 mph 69% 0.00 in 0 W/m2
19:56 34.8 °F 26.0 °F 29.77 in East 3.0 mph 7.0 mph 70% 0.00 in 0 W/m2
20:02 34.8 °F 25.7 °F 29.77 in ENE 5.0 mph 7.0 mph 69% 0.00 in 0 W/m2
20:08 34.8 °F 25.7 °F 29.77 in East 5.0 mph 9.0 mph 69% 0.00 in 0 W/m2
20:14 34.7 °F 25.6 °F 29.77 in East 4.0 mph 8.0 mph 69% 0.00 in 0 W/m2
20:20 34.7 °F 25.6 °F 29.77 in East 4.0 mph 6.0 mph 69% 0.00 in 0 W/m2
20:26 34.6 °F 25.5 °F 29.77 in East 5.0 mph 19.0 mph 69% 0.00 in 0 W/m2
20:32 34.6 °F 25.5 °F 29.77 in ENE 5.0 mph 5.0 mph 69% 0.00 in 0 W/m2
20:38 34.6 °F 25.8 °F 29.77 in NE 5.0 mph 7.0 mph 70% 0.00 in 0 W/m2
20:44 34.5 °F 25.7 °F 29.77 in East 6.0 mph 10.0 mph 70% 0.00 in 0 W/m2
20:50 34.5 °F 25.7 °F 29.77 in ENE 7.0 mph 8.0 mph 70% 0.00 in 0 W/m2
20:56 34.3 °F 25.9 °F 29.77 in East 6.0 mph 8.0 mph 71% 0.00 in 0 W/m2
21:02 34.1 °F 26.3 °F 29.77 in ENE 5.0 mph 8.0 mph 73% 0.00 in 0 W/m2
21:08 34.0 °F 26.6 °F 29.76 in East 5.0 mph 13.0 mph 74% 0.00 in 0 W/m2
21:14 33.8 °F 26.7 °F 29.76 in East 6.0 mph 8.0 mph 75% 0.00 in 0 W/m2
21:20 33.6 °F 26.8 °F 29.76 in ENE 6.0 mph 9.0 mph 76% 0.00 in 0 W/m2
21:26 33.5 °F 27.1 °F 29.76 in East 5.0 mph 9.0 mph 77% 0.00 in 0 W/m2
21:32 33.3 °F 27.2 °F 29.76 in ENE 3.0 mph 4.0 mph 78% 0.00 in 0 W/m2
21:38 33.2 °F 27.1 °F 29.76 in East 2.0 mph 4.0 mph 78% 0.00 in 0 W/m2
21:44 33.1 °F 27.6 °F 29.75 in ENE 4.0 mph 6.0 mph 80% 0.00 in 0 W/m2
21:50 32.8 °F 27.3 °F 29.75 in East 5.0 mph 5.0 mph 80% 0.00 in 0 W/m2
21:56 32.7 °F 27.5 °F 29.75 in ENE 5.0 mph 9.0 mph 81% 0.00 in 0 W/m2
22:02 32.5 °F 27.6 °F 29.74 in ENE 4.0 mph 8.0 mph 82% 0.00 in 0 W/m2
22:08 32.3 °F 28.0 °F 29.74 in ESE 4.0 mph 8.0 mph 84% 0.00 in 0 W/m2
22:14 32.1 °F 28.1 °F 29.74 in ENE 4.0 mph 4.0 mph 85% 0.00 in 0 W/m2
22:20 32.1 °F 28.4 °F 29.74 in NE 3.0 mph 3.0 mph 86% 0.00 in 0 W/m2
22:26 32.0 °F 28.3 °F 29.74 in North 3.0 mph 5.0 mph 86% 0.04 in 0 W/m2
22:32 32.0 °F 28.6 °F 29.74 in ENE 3.0 mph 4.0 mph 87% 0.04 in 0 W/m2
22:38 32.0 °F 28.6 °F 29.74 in ENE 4.0 mph 4.0 mph 87% 0.05 in 0 W/m2
22:44 32.0 °F 28.6 °F 29.74 in ENE 3.0 mph 4.0 mph 87% 0.05 in 0 W/m2
22:50 32.0 °F 28.8 °F 29.73 in ENE 3.0 mph 5.0 mph 88% 0.04 in 0 W/m2
22:56 31.9 °F 28.8 °F 29.73 in NE 3.0 mph 5.0 mph 88% 0.00 in 0 W/m2
23:02 31.9 °F 28.8 °F 29.73 in North 3.0 mph 4.0 mph 88% 0.00 in 0 W/m2
23:08 31.9 °F 28.8 °F 29.72 in ENE 3.0 mph 7.0 mph 88% 0.00 in 0 W/m2
23:14 31.9 °F 28.8 °F 29.72 in East 2.0 mph 4.0 mph 88% 0.00 in 0 W/m2
23:20 31.9 °F 28.8 °F 29.72 in NE 1.0 mph 1.0 mph 88% 0.00 in 0 W/m2
23:26 31.9 °F 29.0 °F 29.72 in ENE 1.0 mph 3.0 mph 89% 0.00 in 0 W/m2
23:32 31.9 °F 29.0 °F 29.71 in North 2.0 mph 2.0 mph 89% 0.00 in 0 W/m2
23:38 31.9 °F 29.0 °F 29.71 in NE 2.0 mph 2.0 mph 89% 0.00 in 0 W/m2
23:44 31.9 °F 29.0 °F 29.71 in East 1.0 mph 5.0 mph 89% 0.00 in 0 W/m2
23:50 31.9 °F 29.0 °F 29.71 in NNE 1.0 mph 3.0 mph 89% 0.00 in 0 W/m2
23:56 31.9 °F 29.0 °F 29.70 in East 2.0 mph 5.0 mph 89% 0.00 in 0 W/m2
Country Meadow, Clay, NY, USA
Compliments of Weather Underground - 2 mb